Regional Weather Roundup
Issued by NWS

Home | Current Version | Previous Version | Text Only | Print | Product List | Glossary On
Versions: 1 2 3 4 5 6 7 8 9 10 11 12 13 14 15 16 17 18 19 20 21 22 23 24 25 26 27 28 29 30 31 32 33 34 35 36 37 38 39 40 41 42 43 44 45 46 47
000
ASUS42 KFFC 301803
RWRGA
WEATHER ROUNDUP FOR GEORGIA
NATIONAL WEATHER SERVICE PEACHTREE CITY GA
200 PM EDT TUE SEP 30 2014

NOTE: "FAIR" INDICATES FEW OR NO CLOUDS BELOW 12,000 FEET WITH NO
SIGNIFICANT WEATHER AND/OR OBSTRUCTIONS TO VISIBILITY.

* = USE WITH CAUTION. THE STATIONS MARKED WITH AN ASTERISK MAY NOT
REPORT WEATHER SUCH AS PRECIPITATION, FOG, OR THUNDER AND ARE NOT
QUALITY CONTROLLED BY NWS.

THE REMARK "TC" DENOTES TEMPERATURE READING IN DEGREES CELSIUS.

GAZ001>058-301900-
NORTH GEORGIA

CITY           SKY/WX    TMP DP  RH WIND       PRES   REMARKS
ATLANTA        MOSUNNY   79  61  53 CALM      29.94F
6HR MIN TEMP:  66; 6HR MAX TEMP:  79;

ATHENS         SUNNY     77  63  61 CALM      29.93F
6HR MIN TEMP:  61; 6HR MAX TEMP:  77;

CHAMBLEE       PTSUNNY   79  61  53 CALM      29.94F
6HR MIN TEMP:  66; 6HR MAX TEMP:  79;

PEACHTREE CITY MOSUNNY   80  63  55 MISG      29.94F
6HR MIN TEMP:  68; 6HR MAX TEMP:  80;

ROME           MOSUNNY   80  65  59 E3        29.93F
6HR MIN TEMP:  59; 6HR MAX TEMP:  80;

WEST ATLANTA   PTSUNNY   79  62  56 E3        29.93F
6HR MIN TEMP:  64; 6HR MAX TEMP:  80;

GAINESVILLE    SUNNY     78  59  51 CALM      29.96F
6HR MIN TEMP:  62; 6HR MAX TEMP:  79;

CARTERSVILLE   PTSUNNY   80  60  50 CALM      29.94F
6HR MIN TEMP:  60; 6HR MAX TEMP:  81;



CITY           SKY/WX    TMP DP  RH WIND       PRES   REMARKS
DALTON*        SUNNY     75  68  78 CALM      29.95F
LAWRENCEVILLE* MOSUNNY   79  57  47 CALM      29.94F
MARIETTA       PTSUNNY   79  63  58 VRB3      29.94F
KENNESAW*      PTSUNNY   79  61  53 VRB3      29.96F
$$

GAZ059>098-102>109-301900-
CENTRAL GEORGIA

CITY           SKY/WX    TMP DP  RH WIND       PRES   REMARKS
AUGUSTA-BUSH   SUNNY     80  59  48 CALM      29.89F
6HR MIN TEMP:  63; 6HR MAX TEMP:  82;

AUGUSTA-DANIEL SUNNY     80  62  54 E6        29.91F
6HR MIN TEMP:  64; 6HR MAX TEMP:  80;

COLUMBUS       CLOUDY    77  65  66 E5        29.92F
6HR MIN TEMP:  67; 6HR MAX TEMP:  77; 6HR PCP:  0.03;

MACON          CLOUDY    76  62  62 CALM      29.92F
6HR MIN TEMP:  67; 6HR MAX TEMP:  76;

ROBINS AFB     CLOUDY    76  65  69 VRB2      29.92F


CITY           SKY/WX    TMP DP  RH WIND       PRES   REMARKS
LAGRANGE*      CLOUDY    81  68  64 S3        29.94F
SYLVANIA*      SUNNY     81  67  62 N6        29.89F
MILLEDGEVILLE* MOSUNNY   79  68  69 CALM      29.91
$$

GAZ099>101-110>166-301900-
SOUTH GEORGIA

CITY           SKY/WX    TMP DP  RH WIND       PRES   REMARKS
SAVANNAH       PTSUNNY   80  65  59 N7        29.88F
6HR MIN TEMP:  67; 6HR MAX TEMP:  80;

VALDOSTA       CLOUDY    77  69  76 NE8       29.89F
6HR MIN TEMP:  69; 6HR MAX TEMP:  77; 6HR PCP: TRACE;

ALMA           PTSUNNY   78  68  71 VRB3      29.89F
6HR MIN TEMP:  67; 6HR MAX TEMP:  79;

ST SIMONS      PTSUNNY   78  68  71 NE10      29.87F
6HR MIN TEMP:  69; 6HR MAX TEMP:  79;

FT STEWART     CLOUDY    75  66  72 N3        29.88F
ALBANY         CLOUDY    77  68  73 VRB5      29.93F
MOODY AFB      CLOUDY    77  68  73 N8        29.88F
BRUNSWICK      CLOUDY    79  68  69 N5        29.88F


CITY           SKY/WX    TMP DP  RH WIND       PRES   REMARKS
BAINBRIDGE*    PTSUNNY   81  72  74 N6        29.90F
MOULTRIE*      PTSUNNY   77  70  78 NE5       29.91F
VIDALIA*       CLOUDY    77  66  69 N6        29.91F
WAYCROSS*      CLOUDY    79  72  79 NE5       29.89F
DOUGLAS*       CLOUDY    79  68  69 NE5       29.91F
$$


USA.gov is the U.S. government's official web portal to all federal, state and local government web resources and services.